Time,TemperatureF,DewpointF,PressureIn,WindDirection,WindDirectionDegrees,WindSpeedMPH,WindSpeedGustMPH,Humidity,HourlyPrecipIn,Conditions,Clouds,dailyrainin,SoftwareType,DateUTC
2013-03-23 00:02:00,33.0,30.0,-100.00,North,-999,0.0,0.0,90,-99.99,,,-99.99,,2013-03-23 07:02:00,
2013-03-23 00:12:00,33.0,30.0,-100.00,North,-999,0.0,0.0,90,-99.99,,,-99.99,,2013-03-23 07:12:00,
2013-03-23 00:22:00,33.0,30.0,-100.00,North,-999,0.0,0.0,90,-99.99,,,-99.99,,2013-03-23 07:22:00,
2013-03-23 00:32:00,33.0,31.0,-100.00,North,-999,0.0,0.0,91,-99.99,,,-99.99,,2013-03-23 07:32:00,
2013-03-23 00:42:00,33.0,31.0,-100.00,North,-999,0.0,0.0,91,-99.99,,,-99.99,,2013-03-23 07:42:00,
2013-03-23 00:52:00,33.0,31.0,-100.00,North,-999,0.0,0.0,91,-99.99,,,-99.99,,2013-03-23 07:52:00,
2013-03-23 01:02:00,33.0,31.0,-100.00,North,-999,0.0,0.0,91,-99.99,,,-99.99,,2013-03-23 08:02:00,
2013-03-23 01:12:00,33.0,31.0,-100.00,North,-999,0.0,0.0,91,-99.99,,,-99.99,,2013-03-23 08:12:00,
2013-03-23 01:22:00,33.0,31.0,-100.00,North,-999,0.0,0.0,91,-99.99,,,-99.99,,2013-03-23 08:22:00,
2013-03-23 01:32:00,33.0,31.0,-100.00,North,-999,0.0,0.0,91,-99.99,,,-99.99,,2013-03-23 08:32:00,
2013-03-23 01:42:00,33.0,31.0,-100.00,North,-999,0.0,0.0,91,-99.99,,,-99.99,,2013-03-23 08:42:00,
2013-03-23 01:52:00,33.0,31.0,-100.00,North,-999,0.0,0.0,91,-99.99,,,-99.99,,2013-03-23 08:52:00,
2013-03-23 02:02:00,33.0,31.0,-100.00,North,-999,0.0,0.0,91,-99.99,,,-99.99,,2013-03-23 09:02:00,
2013-03-23 02:12:00,33.0,31.0,-100.00,North,-999,0.0,0.0,91,-99.99,,,-99.99,,2013-03-23 09:12:00,
2013-03-23 02:22:00,33.0,31.0,-100.00,North,-999,0.0,0.0,91,-99.99,,,-99.99,,2013-03-23 09:22:00,
2013-03-23 02:32:00,33.0,31.0,-100.00,North,-999,0.0,0.0,91,-99.99,,,-99.99,,2013-03-23 09:32:00,
2013-03-23 02:42:00,33.0,31.0,-100.00,North,-999,0.0,0.0,91,-99.99,,,-99.99,,2013-03-23 09:42:00,
2013-03-23 02:53:00,33.0,31.0,-100.00,North,-999,0.0,0.0,91,-99.99,,,-99.99,,2013-03-23 09:53:00,
2013-03-23 03:03:00,33.0,31.0,-100.00,North,-999,0.0,0.0,91,-99.99,,,-99.99,,2013-03-23 10:03:00,
2013-03-23 03:12:00,33.0,31.0,-100.00,North,-999,0.0,0.0,91,-99.99,,,-99.99,,2013-03-23 10:12:00,
2013-03-23 03:23:00,34.0,32.0,-100.00,North,-999,0.0,0.0,92,-99.99,,,-99.99,,2013-03-23 10:23:00,
2013-03-23 03:33:00,33.0,31.0,-100.00,North,-999,0.0,0.0,92,-99.99,,,-99.99,,2013-03-23 10:33:00,
2013-03-23 03:42:00,33.0,31.0,-100.00,North,-999,0.0,0.0,92,-99.99,,,-99.99,,2013-03-23 10:42:00,
2013-03-23 03:52:00,33.0,31.0,-100.00,North,-999,0.0,0.0,92,-99.99,,,-99.99,,2013-03-23 10:52:00,
2013-03-23 04:02:00,33.0,31.0,-100.00,North,-999,0.0,0.0,92,-99.99,,,-99.99,,2013-03-23 11:02:00,
2013-03-23 04:12:00,33.0,31.0,-100.00,North,-999,0.0,0.0,92,-99.99,,,-99.99,,2013-03-23 11:12:00,
2013-03-23 04:22:00,33.0,31.0,-100.00,North,-999,0.0,0.0,92,-99.99,,,-99.99,,2013-03-23 11:22:00,
2013-03-23 04:32:00,33.0,31.0,-100.00,North,-999,0.0,0.0,92,-99.99,,,-99.99,,2013-03-23 11:32:00,
2013-03-23 04:42:00,33.0,31.0,-100.00,North,-999,0.0,0.0,92,-99.99,,,-99.99,,2013-03-23 11:42:00,
2013-03-23 04:52:00,33.0,31.0,-100.00,North,-999,0.0,0.0,92,-99.99,,,-99.99,,2013-03-23 11:52:00,
2013-03-23 05:02:00,33.0,31.0,-100.00,North,-999,0.0,0.0,92,-99.99,,,-99.99,,2013-03-23 12:02:00,
2013-03-23 05:12:00,33.0,31.0,-100.00,North,-999,0.0,0.0,92,-99.99,,,-99.99,,2013-03-23 12:12:00,
2013-03-23 05:22:00,33.0,31.0,-100.00,North,-999,0.0,0.0,92,-99.99,,,-99.99,,2013-03-23 12:22:00,
2013-03-23 05:33:00,33.0,31.0,-100.00,North,-999,0.0,0.0,92,-99.99,,,-99.99,,2013-03-23 12:33:00,
2013-03-23 05:42:00,33.0,31.0,-100.00,North,-999,0.0,0.0,92,-99.99,,,-99.99,,2013-03-23 12:42:00,
2013-03-23 05:53:00,33.0,31.0,-100.00,North,-999,0.0,0.0,92,-99.99,,,-99.99,,2013-03-23 12:53:00,
2013-03-23 06:02:00,33.0,31.0,-100.00,North,-999,0.0,0.0,92,-99.99,,,-99.99,,2013-03-23 13:02:00,
2013-03-23 06:12:00,33.0,31.0,-100.00,North,-999,0.0,0.0,92,-99.99,,,-99.99,,2013-03-23 13:12:00,
2013-03-23 06:22:00,33.0,31.0,-100.00,North,-999,0.0,0.0,92,-99.99,,,-99.99,,2013-03-23 13:22:00,
2013-03-23 06:32:00,33.0,31.0,-100.00,North,-999,0.0,0.0,92,-99.99,,,-99.99,,2013-03-23 13:32:00,
2013-03-23 06:42:00,33.0,31.0,-100.00,North,-999,0.0,0.0,92,-99.99,,,-99.99,,2013-03-23 13:42:00,
2013-03-23 06:53:00,33.0,31.0,-100.00,NE,45,0.0,3.0,92,-99.99,,,-99.99,,2013-03-23 13:53:00,
2013-03-23 07:02:00,32.0,30.0,-100.00,NE,45,0.0,1.0,92,-99.99,,,-99.99,,2013-03-23 14:02:00,
2013-03-23 07:12:00,32.0,30.0,-100.00,NE,45,0.0,1.0,92,-99.99,,,-99.99,,2013-03-23 14:12:00,
2013-03-23 07:22:00,33.0,31.0,-100.00,North,-999,0.0,0.0,92,-99.99,,,-99.99,,2013-03-23 14:22:00,
2013-03-23 07:32:00,32.0,30.0,-100.00,North,-999,0.0,0.0,92,-99.99,,,-99.99,,2013-03-23 14:32:00,
2013-03-23 07:42:00,32.0,30.0,-100.00,North,-999,0.0,0.0,92,-99.99,,,-99.99,,2013-03-23 14:42:00,
2013-03-23 07:52:00,33.0,31.0,-100.00,North,-999,0.0,0.0,92,-99.99,,,-99.99,,2013-03-23 14:52:00,
2013-03-23 08:02:00,33.0,31.0,-100.00,North,-999,0.0,0.0,92,-99.99,,,-99.99,,2013-03-23 15:02:00,
2013-03-23 08:12:00,33.0,31.0,-100.00,North,-999,0.0,0.0,92,-99.99,,,-99.99,,2013-03-23 15:12:00,
2013-03-23 08:22:00,33.0,31.0,-100.00,North,-999,0.0,0.0,92,-99.99,,,-99.99,,2013-03-23 15:22:00,
2013-03-23 08:33:00,33.0,31.0,-100.00,North,-999,0.0,0.0,92,-99.99,,,-99.99,,2013-03-23 15:33:00,
2013-03-23 08:43:00,33.0,31.0,-100.00,North,-999,0.0,0.0,92,-99.99,,,-99.99,,2013-03-23 15:43:00,
2013-03-23 08:53:00,33.0,31.0,-100.00,North,-999,0.0,0.0,92,-99.99,,,-99.99,,2013-03-23 15:53:00,
2013-03-23 09:03:00,33.0,31.0,-100.00,NE,45,0.0,1.0,92,-99.99,,,-99.99,,2013-03-23 16:03:00,
2013-03-23 09:12:00,33.0,31.0,-100.00,NE,45,0.0,1.0,92,-99.99,,,-99.99,,2013-03-23 16:12:00,
2013-03-23 09:22:00,33.0,31.0,-100.00,NE,45,0.0,1.0,92,-99.99,,,-99.99,,2013-03-23 16:22:00,
2013-03-23 09:32:00,34.0,32.0,-100.00,NE,45,0.0,3.0,92,-99.99,,,-99.99,,2013-03-23 16:32:00,
2013-03-23 09:42:00,34.0,32.0,-100.00,NE,45,0.0,3.0,92,-99.99,,,-99.99,,2013-03-23 16:42:00,
2013-03-23 09:53:00,34.0,32.0,-100.00,NE,45,0.0,1.0,92,-99.99,,,-99.99,,2013-03-23 16:53:00,
2013-03-23 10:02:00,34.0,32.0,-100.00,NE,45,0.0,1.0,92,-99.99,,,-99.99,,2013-03-23 17:02:00,
2013-03-23 10:11:00,34.0,32.0,-100.00,NE,45,0.0,1.0,92,-99.99,,,-99.99,,2013-03-23 17:11:00,
2013-03-23 10:22:00,34.0,32.0,-100.00,NE,45,0.0,1.0,92,-99.99,,,-99.99,,2013-03-23 17:22:00,
2013-03-23 10:32:00,35.0,33.0,-100.00,NE,45,0.0,2.0,92,-99.99,,,-99.99,,2013-03-23 17:32:00,
2013-03-23 10:43:00,35.0,33.0,-100.00,NE,45,0.0,2.0,92,-99.99,,,-99.99,,2013-03-23 17:43:00,
2013-03-23 10:52:00,35.0,33.0,-100.00,NE,45,0.0,2.0,92,-99.99,,,-99.99,,2013-03-23 17:52:00,
2013-03-23 11:02:00,35.0,33.0,-100.00,North,-999,0.0,0.0,92,-99.99,,,-99.99,,2013-03-23 18:02:00,
2013-03-23 11:12:00,35.0,33.0,-100.00,North,-999,0.0,0.0,92,-99.99,,,-99.99,,2013-03-23 18:12:00,
2013-03-23 11:22:00,35.0,33.0,-100.00,North,-999,0.0,0.0,92,-99.99,,,-99.99,,2013-03-23 18:22:00,
2013-03-23 11:32:00,37.0,34.0,-100.00,North,-999,0.0,0.0,89,-99.99,,,-99.99,,2013-03-23 18:32:00,
2013-03-23 11:43:00,37.0,34.0,-100.00,North,-999,0.0,0.0,89,-99.99,,,-99.99,,2013-03-23 18:43:00,
2013-03-23 11:53:00,37.0,33.0,-100.00,NE,45,0.0,1.0,86,-99.99,,,-99.99,,2013-03-23 18:53:00,
2013-03-23 12:02:00,37.0,33.0,-100.00,North,0,0.0,1.0,83,-99.99,,,-99.99,,2013-03-23 19:02:00,
2013-03-23 12:12:00,37.0,33.0,-100.00,North,0,0.0,1.0,83,-99.99,,,-99.99,,2013-03-23 19:12:00,
2013-03-23 12:22:00,38.0,33.0,-100.00,South,180,0.0,3.0,81,-99.99,,,-99.99,,2013-03-23 19:22:00,
2013-03-23 12:32:00,39.0,33.0,-100.00,NE,45,0.0,1.0,79,-99.99,,,-99.99,,2013-03-23 19:32:00,
2013-03-23 12:42:00,39.0,33.0,-100.00,NE,45,0.0,1.0,79,-99.99,,,-99.99,,2013-03-23 19:42:00,
2013-03-23 12:53:00,40.0,33.0,-100.00,North,-999,0.0,0.0,76,-99.99,,,-99.99,,2013-03-23 19:53:00,
2013-03-23 13:02:00,41.0,32.0,-100.00,East,90,0.0,2.0,71,-99.99,,,-99.99,,2013-03-23 20:02:00,
2013-03-23 13:12:00,41.0,32.0,-100.00,East,90,0.0,2.0,71,-99.99,,,-99.99,,2013-03-23 20:12:00,
2013-03-23 13:22:00,42.0,32.0,-100.00,North,-999,0.0,0.0,67,-99.99,,,-99.99,,2013-03-23 20:22:00,
2013-03-23 13:32:00,44.0,32.0,-100.00,North,-999,0.0,0.0,62,-99.99,,,-99.99,,2013-03-23 20:32:00,
2013-03-23 13:42:00,44.0,32.0,-100.00,North,-999,0.0,0.0,62,-99.99,,,-99.99,,2013-03-23 20:42:00,
2013-03-23 13:53:00,44.0,29.0,-100.00,North,-999,0.0,0.0,56,-99.99,,,-99.99,,2013-03-23 20:53:00,
2013-03-23 14:02:00,44.0,27.0,-100.00,North,-999,0.0,0.0,50,-99.99,,,-99.99,,2013-03-23 21:02:00,
2013-03-23 14:12:00,44.0,27.0,-100.00,North,-999,0.0,0.0,50,-99.99,,,-99.99,,2013-03-23 21:12:00,
2013-03-23 14:22:00,44.0,27.0,-100.00,North,-999,0.0,0.0,51,-99.99,,,-99.99,,2013-03-23 21:22:00,
2013-03-23 14:32:00,44.0,25.0,-100.00,North,-999,0.0,0.0,48,-99.99,,,-99.99,,2013-03-23 21:32:00,
2013-03-23 14:43:00,44.0,25.0,-100.00,North,-999,0.0,0.0,48,-99.99,,,-99.99,,2013-03-23 21:43:00,
2013-03-23 14:53:00,43.0,25.0,-100.00,North,-999,0.0,0.0,48,-99.99,,,-99.99,,2013-03-23 21:53:00,
2013-03-23 15:02:00,43.0,24.0,-100.00,North,-999,0.0,0.0,45,-99.99,,,-99.99,,2013-03-23 22:02:00,
2013-03-23 15:12:00,43.0,24.0,-100.00,North,-999,0.0,0.0,45,-99.99,,,-99.99,,2013-03-23 22:12:00,
2013-03-23 15:23:00,43.0,22.0,-100.00,North,-999,0.0,0.0,42,-99.99,,,-99.99,,2013-03-23 22:23:00,
2013-03-23 15:32:00,44.0,20.0,-100.00,North,-999,0.0,0.0,39,-99.99,,,-99.99,,2013-03-23 22:32:00,
2013-03-23 15:53:00,44.0,22.0,-100.00,North,-999,0.0,0.0,41,-99.99,,,-99.99,,2013-03-23 22:53:00,
2013-03-23 16:02:00,44.0,22.0,-100.00,North,-999,0.0,0.0,42,-99.99,,,-99.99,,2013-03-23 23:02:00,
2013-03-23 16:12:00,44.0,22.0,-100.00,North,-999,0.0,0.0,42,-99.99,,,-99.99,,2013-03-23 23:12:00,
2013-03-23 16:22:00,44.0,23.0,-100.00,North,-999,0.0,0.0,42,-99.99,,,-99.99,,2013-03-23 23:22:00,
2013-03-23 16:32:00,44.0,23.0,-100.00,North,-999,0.0,0.0,43,-99.99,,,-99.99,,2013-03-23 23:32:00,
2013-03-23 16:42:00,44.0,23.0,-100.00,North,-999,0.0,0.0,43,-99.99,,,-99.99,,2013-03-23 23:42:00,
2013-03-23 16:52:00,44.0,24.0,-100.00,North,-999,0.0,0.0,45,-99.99,,,-99.99,,2013-03-23 23:52:00,
2013-03-23 17:02:00,45.0,23.0,-100.00,North,-999,0.0,0.0,43,-99.99,,,-99.99,,2013-03-24 00:02:00,
2013-03-23 17:12:00,45.0,23.0,-100.00,North,-999,0.0,0.0,43,-99.99,,,-99.99,,2013-03-24 00:12:00,
2013-03-23 17:22:00,45.0,25.0,-100.00,North,-999,0.0,0.0,44,-99.99,,,-99.99,,2013-03-24 00:22:00,
2013-03-23 17:32:00,45.0,25.0,-100.00,North,-999,0.0,0.0,44,-99.99,,,-99.99,,2013-03-24 00:32:00,
2013-03-23 17:42:00,45.0,25.0,-100.00,North,-999,0.0,0.0,44,-99.99,,,-99.99,,2013-03-24 00:42:00,
2013-03-23 17:52:00,45.0,26.0,-100.00,North,-999,0.0,0.0,46,-99.99,,,-99.99,,2013-03-24 00:52:00,
2013-03-23 18:02:00,46.0,26.0,-100.00,North,-999,0.0,0.0,45,-99.99,,,-99.99,,2013-03-24 01:02:00,
2013-03-23 18:12:00,46.0,26.0,-100.00,North,-999,0.0,0.0,45,-99.99,,,-99.99,,2013-03-24 01:12:00,
2013-03-23 18:22:00,45.0,26.0,-100.00,North,-999,0.0,0.0,47,-99.99,,,-99.99,,2013-03-24 01:22:00,
2013-03-23 18:32:00,44.0,27.0,-100.00,North,-999,0.0,0.0,51,-99.99,,,-99.99,,2013-03-24 01:32:00,
2013-03-23 18:42:00,44.0,27.0,-100.00,North,-999,0.0,0.0,51,-99.99,,,-99.99,,2013-03-24 01:42:00,
2013-03-23 18:53:00,44.0,28.0,-100.00,North,-999,0.0,0.0,54,-99.99,,,-99.99,,2013-03-24 01:53:00,
2013-03-23 19:02:00,43.0,30.0,-100.00,North,-999,0.0,0.0,59,-99.99,,,-99.99,,2013-03-24 02:02:00,
2013-03-23 19:12:00,43.0,30.0,-100.00,North,-999,0.0,0.0,59,-99.99,,,-99.99,,2013-03-24 02:12:00,
2013-03-23 19:21:00,42.0,30.0,-100.00,North,-999,0.0,0.0,64,-99.99,,,-99.99,,2013-03-24 02:21:00,
2013-03-23 19:32:00,41.0,30.0,-100.00,North,-999,0.0,0.0,66,-99.99,,,-99.99,,2013-03-24 02:32:00,
2013-03-23 19:42:00,41.0,30.0,-100.00,North,-999,0.0,0.0,66,-99.99,,,-99.99,,2013-03-24 02:42:00,
2013-03-23 19:52:00,39.0,30.0,-100.00,North,-999,0.0,0.0,70,-99.99,,,-99.99,,2013-03-24 02:52:00,
2013-03-23 20:02:00,39.0,30.0,-100.00,North,-999,0.0,0.0,72,-99.99,,,-99.99,,2013-03-24 03:02:00,
2013-03-23 20:12:00,39.0,30.0,-100.00,North,-999,0.0,0.0,72,-99.99,,,-99.99,,2013-03-24 03:12:00,
2013-03-23 20:22:00,38.0,31.0,-100.00,North,-999,0.0,0.0,75,-99.99,,,-99.99,,2013-03-24 03:22:00,
2013-03-23 20:33:00,38.0,31.0,-100.00,North,-999,0.0,0.0,76,-99.99,,,-99.99,,2013-03-24 03:33:00,
2013-03-23 20:42:00,38.0,31.0,-100.00,North,-999,0.0,0.0,76,-99.99,,,-99.99,,2013-03-24 03:42:00,
2013-03-23 20:53:00,38.0,31.0,-100.00,North,-999,0.0,0.0,77,-99.99,,,-99.99,,2013-03-24 03:53:00,
2013-03-23 21:02:00,38.0,32.0,-100.00,North,-999,0.0,0.0,78,-99.99,,,-99.99,,2013-03-24 04:02:00,
2013-03-23 21:12:00,38.0,32.0,-100.00,North,-999,0.0,0.0,78,-99.99,,,-99.99,,2013-03-24 04:12:00,
2013-03-23 21:22:00,38.0,32.0,-100.00,North,-999,0.0,0.0,80,-99.99,,,-99.99,,2013-03-24 04:22:00,
2013-03-23 21:32:00,37.0,32.0,-100.00,North,-999,0.0,0.0,80,-99.99,,,-99.99,,2013-03-24 04:32:00,
2013-03-23 21:42:00,37.0,32.0,-100.00,North,-999,0.0,0.0,80,-99.99,,,-99.99,,2013-03-24 04:42:00,
2013-03-23 21:53:00,37.0,32.0,-100.00,North,-999,0.0,0.0,81,-99.99,,,-99.99,,2013-03-24 04:53:00,
2013-03-23 22:02:00,37.0,31.0,-100.00,North,-999,0.0,0.0,81,-99.99,,,-99.99,,2013-03-24 05:02:00,
2013-03-23 22:12:00,37.0,31.0,-100.00,North,-999,0.0,0.0,81,-99.99,,,-99.99,,2013-03-24 05:12:00,
2013-03-23 22:22:00,36.0,31.0,-100.00,North,-999,0.0,0.0,81,-99.99,,,-99.99,,2013-03-24 05:22:00,
2013-03-23 22:32:00,36.0,31.0,-100.00,North,-999,0.0,0.0,81,-99.99,,,-99.99,,2013-03-24 05:32:00,
2013-03-23 22:42:00,36.0,31.0,-100.00,North,-999,0.0,0.0,81,-99.99,,,-99.99,,2013-03-24 05:42:00,
2013-03-23 22:52:00,36.0,31.0,-100.00,North,-999,0.0,0.0,82,-99.99,,,-99.99,,2013-03-24 05:52:00,
2013-03-23 23:02:00,36.0,32.0,-100.00,North,-999,0.0,0.0,83,-99.99,,,-99.99,,2013-03-24 06:02:00,
2013-03-23 23:12:00,36.0,32.0,-100.00,North,-999,0.0,0.0,83,-99.99,,,-99.99,,2013-03-24 06:12:00,
2013-03-23 23:22:00,36.0,32.0,-100.00,North,-999,0.0,0.0,83,-99.99,,,-99.99,,2013-03-24 06:22:00,
2013-03-23 23:32:00,37.0,32.0,-100.00,North,-999,0.0,0.0,83,-99.99,,,-99.99,,2013-03-24 06:32:00,
2013-03-23 23:42:00,37.0,32.0,-100.00,North,-999,0.0,0.0,83,-99.99,,,-99.99,,2013-03-24 06:42:00,
2013-03-23 23:52:00,37.0,32.0,-100.00,North,-999,0.0,0.0,83,-99.99,,,-99.99,,2013-03-24 06:52:00,